Track STARLINK-3097 now! 10-day predictions STARLINK-3097 is classified as:
1 49448U 21104AS 22148.58334491 -.00017686 00000-0 -10952-2 0 9990 2 49448 53.2155 299.1582 0002295 36.5479 273.1645 15.08858516 31346